| time (UTC) | temp F | wind direction | speed MPH | gust MPH | rain 1hr in | rain 24hr in | rain mn in | humidity % | barometer mb |
| 20260831052520 | 67 | 0.0 | 0.0 | 0.00 | 0.00 | 0.00 | 81 | 1017.1 | |
| 20260831052020 | 67 | 0.0 | 0.0 | 0.00 | 0.00 | 0.00 | 81 | 1017.0 | |
| 20260831051520 | 68 | 0.0 | 0.0 | 0.00 | 0.00 | 0.00 | 80 | 1016.9 | |
| 20260831051020 | 68 | 0.0 | 0.0 | 0.00 | 0.00 | 0.00 | 80 | 1016.9 | |
| 20260831050519 | 68 | 0.0 | 0.0 | 0.00 | 0.00 | 0.00 | 79 | 1016.9 | |
| 20260831050019 | 69 | 0.0 | 1.0 | 0.00 | 0.00 | 0.00 | 78 | 1017.0 | |
| 20260831045519 | 69 | 168 | 0.0 | 1.0 | 0.00 | 0.00 | 0.00 | 77 | 1017.0 |
| 20260831045018 | 69 | 0.0 | 0.0 | 0.00 | 0.00 | 0.00 | 77 | 1016.9 | |
| 20260831044519 | 70 | 168 | 0.0 | 1.0 | 0.00 | 0.00 | 0.00 | 77 | 1016.8 |
| 20260831044020 | 70 | 168 | 0.0 | 1.0 | 0.00 | 0.00 | 0.00 | 77 | 1016.7 |
| 20260831043520 | 70 | 168 | 0.0 | 1.0 | 0.00 | 0.00 | 0.00 | 78 | 1016.6 |
| 20260831043020 | 69 | 168 | 0.0 | 1.0 | 0.00 | 0.00 | 0.00 | 78 | 1016.8 |
| 20260831042520 | 69 | 168 | 0.0 | 1.0 | 0.00 | 0.00 | 0.00 | 79 | 1016.7 |
| 20260831042200 | 70 | 0.0 | 1.0 | 0.00 | 0.00 | 0.00 | 78 | 1016.7 | |
| 20260831041519 | 70 | 0.0 | 0.0 | 0.00 | 0.00 | 0.00 | 78 | 1016.8 | |
| 20260831041019 | 70 | 0.0 | 0.0 | 0.00 | 0.00 | 0.00 | 76 | 1016.7 | |
| 20260831040519 | 71 | 0.0 | 0.0 | 0.00 | 0.00 | 0.00 | 77 | 1016.7 | |
| 20260831040020 | 71 | 0.0 | 1.0 | 0.00 | 0.00 | 0.00 | 77 | 1016.7 | |
| 20260831035520 | 71 | 168 | 0.0 | 1.0 | 0.00 | 0.00 | 0.00 | 77 | 1016.6 |
| 20260831035021 | 71 | 0.0 | 0.0 | 0.00 | 0.00 | 0.00 | 77 | 1016.6 | |
| 20260831034520 | 71 | 0.0 | 0.0 | 0.00 | 0.00 | 0.00 | 77 | 1016.6 | |
| 20260831034020 | 71 | 177 | 0.0 | 1.0 | 0.00 | 0.00 | 0.00 | 79 | 1016.6 |
| 20260831033519 | 71 | 184 | 0.0 | 1.0 | 0.00 | 0.00 | 0.00 | 79 | 1016.6 |
| 20260831033019 | 71 | 200 | 0.0 | 1.0 | 0.00 | 0.00 | 0.00 | 80 | 1016.6 |
| 20260831032519 | 71 | 225 | 0.0 | 1.0 | 0.00 | 0.00 | 0.00 | 80 | 1016.7 |
| 20260831032019 | 71 | 224 | 0.0 | 1.0 | 0.00 | 0.00 | 0.00 | 80 | 1016.5 |
| 20260831031541 | 71 | 224 | 0.0 | 1.0 | 0.00 | 0.00 | 0.00 | 81 | 1016.6 |
| 20260831031018 | 71 | 242 | 0.0 | 1.0 | 0.00 | 0.00 | 0.00 | 81 | 1016.6 |
| 20260831030520 | 71 | 250 | 0.0 | 1.0 | 0.00 | 0.00 | 0.00 | 80 | 1016.6 |
| 20260831030020 | 71 | 250 | 0.0 | 1.0 | 0.00 | 0.00 | 0.00 | 79 | 1016.6 |
| 20260831025520 | 71 | 252 | 0.0 | 3.0 | 0.00 | 0.00 | 0.00 | 80 | 1016.4 |
| 20260831025019 | 71 | 0.0 | 1.0 | 0.00 | 0.00 | 0.00 | 79 | 1016.6 | |
| 20260831024519 | 71 | 0.0 | 1.0 | 0.00 | 0.00 | 0.00 | 79 | 1016.7 | |
| 20260831024019 | 71 | 0.0 | 0.0 | 0.00 | 0.00 | 0.00 | 79 | 1016.5 | |
| 20260831023519 | 71 | 0.0 | 1.0 | 0.00 | 0.00 | 0.00 | 78 | 1016.6 | |
| 20260831023018 | 72 | 280 | 0.0 | 2.0 | 0.00 | 0.00 | 0.00 | 78 | 1016.5 |
| 20260831022538 | 72 | 279 | 0.0 | 2.0 | 0.00 | 0.00 | 0.00 | 76 | 1016.6 |
| 20260831022040 | 72 | 227 | 0.0 | 2.0 | 0.00 | 0.00 | 0.00 | 76 | 1016.6 |
| 20260831021520 | 72 | 148 | 0.0 | 1.0 | 0.00 | 0.00 | 0.00 | 75 | 1016.6 |
| 20260831021019 | 73 | 0.0 | 1.0 | 0.00 | 0.00 | 0.00 | 74 | 1016.5 | |
| 20260831020519 | 73 | 158 | 0.0 | 1.0 | 0.00 | 0.00 | 0.00 | 74 | 1016.6 |
| 20260831020021 | 73 | 0.0 | 1.0 | 0.00 | 0.00 | 0.00 | 73 | 1016.5 | |
| 20260831015521 | 73 | 234 | 0.0 | 1.0 | 0.00 | 0.00 | 0.00 | 72 | 1016.4 |
| 20260831015041 | 73 | 202 | 0.0 | 2.0 | 0.00 | 0.00 | 0.00 | 71 | 1016.4 |
| 20260831014520 | 73 | 238 | 1.0 | 2.0 | 0.00 | 0.00 | 0.00 | 71 | 1016.4 |
| 20260831014020 | 73 | 10 | 0.0 | 2.0 | 0.00 | 0.00 | 0.00 | 71 | 1016.4 |
| 20260831013601 | 73 | 282 | 1.0 | 3.0 | 0.00 | 0.00 | 0.00 | 71 | 1016.2 |
| 20260831013020 | 73 | 177 | 1.0 | 3.0 | 0.00 | 0.00 | 0.00 | 71 | 1016.2 |
| 20260831012519 | 73 | 134 | 1.0 | 4.0 | 0.00 | 0.00 | 0.00 | 70 | 1016.2 |
| 20260831012019 | 73 | 299 | 0.0 | 3.0 | 0.00 | 0.00 | 0.00 | 70 | 1016.0 |
| 20260831011521 | 74 | 293 | 0.0 | 1.0 | 0.00 | 0.00 | 0.00 | 70 | 1016.0 |
| 20260831011020 | 74 | 244 | 0.0 | 2.0 | 0.00 | 0.00 | 0.00 | 69 | 1016.1 |
| 20260831010519 | 74 | 127 | 0.0 | 2.0 | 0.00 | 0.00 | 0.00 | 69 | 1016.1 |
| 20260831010019 | 74 | 268 | 1.0 | 4.0 | 0.00 | 0.00 | 0.00 | 68 | 1016.1 |
| 20260831005519 | 74 | 194 | 1.0 | 4.0 | 0.00 | 0.00 | 0.00 | 69 | 1016.0 |
| 20260831005021 | 74 | 334 | 0.0 | 4.0 | 0.00 | 0.00 | 0.00 | 68 | 1015.9 |
| 20260831004521 | 74 | 301 | 1.0 | 3.0 | 0.00 | 0.00 | 0.00 | 67 | 1015.9 |
| 20260831004040 | 74 | 132 | 1.0 | 3.0 | 0.00 | 0.00 | 0.00 | 67 | 1015.9 |
| 20260831003540 | 74 | 226 | 1.0 | 4.0 | 0.00 | 0.00 | 0.00 | 66 | 1015.8 |
| 20260831003020 | 74 | 183 | 1.0 | 4.0 | 0.00 | 0.00 | 0.00 | 66 | 1015.8 |
| 20260831002520 | 74 | 182 | 1.0 | 6.0 | 0.00 | 0.00 | 0.00 | 66 | 1015.8 |
| 20260831002020 | 74 | 224 | 2.0 | 4.0 | 0.00 | 0.00 | 0.00 | 65 | 1015.7 |
| 20260831001539 | 74 | 187 | 1.0 | 7.0 | 0.00 | 0.00 | 0.00 | 65 | 1015.5 |
| 20260831001101 | 74 | 186 | 1.0 | 7.0 | 0.00 | 0.00 | 0.00 | 65 | 1015.7 |
| 20260831000521 | 75 | 240 | 1.0 | 3.0 | 0.00 | 0.00 | 0.00 | 64 | 1015.6 |
| 20260831000020 | 75 | 198 | 1.0 | 3.0 | 0.00 | 0.00 | 0.00 | 64 | 1015.5 |
| 20260830233019 | 75 | 144 | 1.0 | 3.0 | 0.00 | 0.00 | 0.00 | 62 | 1015.4 |
| 20260830232519 | 75 | 287 | 1.0 | 8.0 | 0.00 | 0.00 | 0.00 | 62 | 1015.3 |
| 20260830232101 | 76 | 208 | 2.0 | 8.0 | 0.00 | 0.00 | 0.00 | 61 | 1015.3 |
| 20260830231519 | 76 | 204 | 2.0 | 9.0 | 0.00 | 0.00 | 0.00 | 60 | 1015.4 |
| 20260830231020 | 76 | 205 | 2.0 | 7.0 | 0.00 | 0.00 | 0.00 | 59 | 1015.4 |
| 20260830230520 | 76 | 166 | 1.0 | 6.0 | 0.00 | 0.00 | 0.00 | 59 | 1015.5 |
| 20260830230020 | 76 | 203 | 2.0 | 7.0 | 0.00 | 0.00 | 0.00 | 58 | 1015.5 |
| 20260830225520 | 76 | 170 | 1.0 | 7.0 | 0.00 | 0.00 | 0.00 | 57 | 1015.5 |
| 20260830225019 | 77 | 185 | 2.0 | 10.0 | 0.00 | 0.00 | 0.00 | 56 | 1015.6 |
| 20260830224519 | 77 | 212 | 2.0 | 10.0 | 0.00 | 0.00 | 0.00 | 56 | 1015.6 |
| 20260830224019 | 77 | 252 | 1.0 | 2.0 | 0.00 | 0.00 | 0.00 | 56 | 1015.6 |
| 20260830223539 | 77 | 241 | 1.0 | 7.0 | 0.00 | 0.00 | 0.00 | 55 | 1015.6 |
| 20260830223020 | 77 | 201 | 2.0 | 7.0 | 0.00 | 0.00 | 0.00 | 55 | 1015.8 |
| 20260830222520 | 77 | 245 | 1.0 | 6.0 | 0.00 | 0.00 | 0.00 | 54 | 1015.8 |
| 20260830222020 | 77 | 207 | 2.0 | 10.0 | 0.00 | 0.00 | 0.00 | 54 | 1015.8 |
| 20260830221520 | 77 | 208 | 1.0 | 3.0 | 0.00 | 0.00 | 0.00 | 54 | 1015.8 |
| 20260830221019 | 77 | 159 | 0.0 | 7.0 | 0.00 | 0.00 | 0.00 | 53 | 1015.7 |
| 20260830220519 | 77 | 204 | 1.0 | 7.0 | 0.00 | 0.00 | 0.00 | 54 | 1015.8 |
| 20260830220040 | 77 | 201 | 2.0 | 6.0 | 0.00 | 0.00 | 0.00 | 53 | 1015.7 |
| 20260830215519 | 77 | 227 | 2.0 | 7.0 | 0.00 | 0.00 | 0.00 | 53 | 1015.9 |
| 20260830215021 | 77 | 299 | 1.0 | 6.0 | 0.00 | 0.00 | 0.00 | 53 | 1015.9 |
| 20260830214521 | 78 | 254 | 1.0 | 6.0 | 0.00 | 0.00 | 0.00 | 53 | 1015.8 |
| 20260830214020 | 78 | 237 | 1.0 | 6.0 | 0.00 | 0.00 | 0.00 | 51 | 1015.9 |
| 20260830213520 | 78 | 190 | 1.0 | 6.0 | 0.00 | 0.00 | 0.00 | 52 | 1016.1 |
| 20260830213040 | 78 | 234 | 0.0 | 4.0 | 0.00 | 0.00 | 0.00 | 51 | 1016.0 |
| 20260830212520 | 78 | 205 | 2.0 | 7.0 | 0.00 | 0.00 | 0.00 | 51 | 1016.1 |
| 20260830212019 | 78 | 210 | 1.0 | 7.0 | 0.00 | 0.00 | 0.00 | 52 | 1016.1 |
| 20260830211519 | 78 | 141 | 1.0 | 6.0 | 0.00 | 0.00 | 0.00 | 52 | 1016.0 |
| 20260830211019 | 78 | 202 | 1.0 | 6.0 | 0.00 | 0.00 | 0.00 | 52 | 1016.1 |
| 20260830210520 | 78 | 233 | 1.0 | 7.0 | 0.00 | 0.00 | 0.00 | 53 | 1016.0 |
| 20260830210043 | 78 | 239 | 1.0 | 7.0 | 0.00 | 0.00 | 0.00 | 53 | 1015.9 |
| 20260830205520 | 78 | 210 | 2.0 | 8.0 | 0.00 | 0.00 | 0.00 | 54 | 1015.9 |
| 20260830205020 | 78 | 242 | 1.0 | 3.0 | 0.00 | 0.00 | 0.00 | 53 | 1015.9 |
| 20260830204519 | 78 | 202 | 1.0 | 7.0 | 0.00 | 0.00 | 0.00 | 54 | 1015.8 |
| 20260830204019 | 78 | 173 | 1.0 | 6.0 | 0.00 | 0.00 | 0.00 | 53 | 1016.0 |
| 20260830203519 | 78 | 180 | 1.0 | 4.0 | 0.00 | 0.00 | 0.00 | 54 | 1016.1 |
| 20260830203020 | 78 | 244 | 0.0 | 2.0 | 0.00 | 0.00 | 0.00 | 53 | 1016.1 |
| 20260830202521 | 78 | 193 | 0.0 | 6.0 | 0.00 | 0.00 | 0.00 | 54 | 1016.2 |
| 20260830202020 | 78 | 198 | 1.0 | 6.0 | 0.00 | 0.00 | 0.00 | 52 | 1016.2 |
| 20260830201540 | 78 | 218 | 1.0 | 6.0 | 0.00 | 0.00 | 0.00 | 50 | 1016.3 |
| 20260830201020 | 79 | 138 | 1.0 | 9.0 | 0.00 | 0.00 | 0.00 | 51 | 1016.4 |
| 20260830200519 | 79 | 225 | 2.0 | 9.0 | 0.00 | 0.00 | 0.00 | 52 | 1016.5 |
| 20260830200020 | 79 | 26 | 1.0 | 2.0 | 0.00 | 0.00 | 0.00 | 52 | 1016.5 |
| 20260830195539 | 79 | 215 | 1.0 | 4.0 | 0.00 | 0.00 | 0.00 | 52 | 1016.5 |
| 20260830195021 | 79 | 223 | 1.0 | 3.0 | 0.00 | 0.00 | 0.00 | 52 | 1016.5 |
| 20260830194521 | 79 | 31 | 0.0 | 3.0 | 0.00 | 0.00 | 0.00 | 53 | 1016.7 |
| 20260830194020 | 79 | 318 | 1.0 | 6.0 | 0.00 | 0.00 | 0.00 | 51 | 1016.8 |
| 20260830193520 | 79 | 270 | 1.0 | 4.0 | 0.00 | 0.00 | 0.00 | 51 | 1016.8 |
| 20260830193040 | 79 | 216 | 2.0 | 9.0 | 0.00 | 0.00 | 0.00 | 50 | 1016.9 |
| 20260830192520 | 79 | 287 | 2.0 | 7.0 | 0.00 | 0.00 | 0.00 | 50 | 1017.0 |
| 20260830192039 | 80 | 261 | 1.0 | 6.0 | 0.00 | 0.00 | 0.00 | 48 | 1017.0 |
| 20260830191540 | 80 | 286 | 2.0 | 6.0 | 0.00 | 0.00 | 0.00 | 49 | 1017.1 |
| 20260830191019 | 80 | 302 | 2.0 | 6.0 | 0.00 | 0.00 | 0.00 | 49 | 1017.1 |
| 20260830190519 | 80 | 275 | 1.0 | 9.0 | 0.00 | 0.00 | 0.00 | 48 | 1017.3 |
| 20260830190042 | 80 | 297 | 1.0 | 8.0 | 0.00 | 0.00 | 0.00 | 48 | 1017.3 |
| 20260830185520 | 80 | 327 | 1.0 | 4.0 | 0.00 | 0.00 | 0.00 | 47 | 1017.3 |
| 20260830185020 | 80 | 322 | 0.0 | 6.0 | 0.00 | 0.00 | 0.00 | 47 | 1017.3 |
| 20260830184520 | 81 | 294 | 2.0 | 7.0 | 0.00 | 0.00 | 0.00 | 48 | 1017.3 |
| 20260830184020 | 81 | 340 | 1.0 | 3.0 | 0.00 | 0.00 | 0.00 | 46 | 1017.4 |
| 20260830183519 | 80 | 207 | 1.0 | 4.0 | 0.00 | 0.00 | 0.00 | 45 | 1017.4 |
| 20260830183019 | 80 | 317 | 1.0 | 4.0 | 0.00 | 0.00 | 0.00 | 46 | 1017.4 |
| 20260830182519 | 80 | 296 | 2.0 | 6.0 | 0.00 | 0.00 | 0.00 | 45 | 1017.4 |
| 20260830182021 | 80 | 303 | 1.0 | 6.0 | 0.00 | 0.00 | 0.00 | 46 | 1017.5 |
| 20260830181518 | 80 | 34 | 1.0 | 3.0 | 0.00 | 0.00 | 0.00 | 46 | 1017.5 |
| 20260830181020 | 81 | 298 | 2.0 | 7.0 | 0.00 | 0.00 | 0.00 | 46 | 1017.4 |
| 20260830180540 | 81 | 293 | 2.0 | 10.0 | 0.00 | 0.00 | 0.00 | 45 | 1017.5 |
| 20260830180020 | 81 | 214 | 2.0 | 9.0 | 0.00 | 0.00 | 0.00 | 45 | 1017.7 |
| 20260830175519 | 81 | 265 | 3.0 | 13.0 | 0.00 | 0.00 | 0.00 | 45 | 1017.8 |
| 20260830175019 | 82 | 320 | 1.0 | 6.0 | 0.00 | 0.00 | 0.00 | 45 | 1017.8 |
| 20260830174519 | 82 | 267 | 1.0 | 7.0 | 0.00 | 0.00 | 0.00 | 46 | 1017.9 |
| 20260830174041 | 82 | 96 | 2.0 | 7.0 | 0.00 | 0.00 | 0.00 | 47 | 1017.8 |
| 20260830173520 | 82 | 88 | 1.0 | 6.0 | 0.00 | 0.00 | 0.00 | 50 | 1017.7 |
| 20260830173040 | 81 | 49 | 1.0 | 6.0 | 0.00 | 0.00 | 0.00 | 47 | 1017.8 |
| 20260830172520 | 81 | 347 | 2.0 | 4.0 | 0.00 | 0.00 | 0.00 | 47 | 1017.9 |
| 20260830172020 | 81 | 335 | 2.0 | 4.0 | 0.00 | 0.00 | 0.00 | 47 | 1017.9 |
| 20260830171540 | 81 | 3 | 1.0 | 4.0 | 0.00 | 0.00 | 0.00 | 46 | 1017.9 |
| 20260830171019 | 81 | 53 | 2.0 | 4.0 | 0.00 | 0.00 | 0.00 | 45 | 1018.0 |
| 20260830170519 | 81 | 33 | 1.0 | 6.0 | 0.00 | 0.00 | 0.00 | 45 | 1017.9 |
| 20260830170019 | 81 | 18 | 2.0 | 4.0 | 0.00 | 0.00 | 0.00 | 46 | 1018.1 |
| 20260830165521 | 82 | 21 | 2.0 | 6.0 | 0.00 | 0.00 | 0.00 | 45 | 1018.2 |
| 20260830165020 | 82 | 34 | 2.0 | 8.0 | 0.00 | 0.00 | 0.00 | 46 | 1018.3 |
| 20260830164520 | 82 | 8 | 2.0 | 8.0 | 0.00 | 0.00 | 0.00 | 45 | 1018.5 |
| 20260830164040 | 82 | 338 | 2.0 | 8.0 | 0.00 | 0.00 | 0.00 | 45 | 1018.3 |
| 20260830163520 | 82 | 4 | 2.0 | 6.0 | 0.00 | 0.00 | 0.00 | 45 | 1018.3 |
| 20260830163039 | 81 | 336 | 2.0 | 15.0 | 0.00 | 0.00 | 0.00 | 46 | 1018.3 |
| 20260830162519 | 81 | 358 | 2.0 | 15.0 | 0.00 | 0.00 | 0.00 | 49 | 1018.4 |
| 20260830162019 | 80 | 7 | 2.0 | 8.0 | 0.00 | 0.00 | 0.00 | 49 | 1018.6 |
| 20260830161519 | 80 | 74 | 1.0 | 3.0 | 0.00 | 0.00 | 0.00 | 48 | 1018.6 |
| 20260830161020 | 80 | 4 | 1.0 | 8.0 | 0.00 | 0.00 | 0.00 | 50 | 1018.6 |
| 20260830160541 | 80 | 51 | 1.0 | 4.0 | 0.00 | 0.00 | 0.00 | 47 | 1018.6 |
| 20260830160040 | 81 | 16 | 2.0 | 9.0 | 0.00 | 0.00 | 0.00 | 48 | 1018.6 |
| 20260830155520 | 81 | 327 | 2.0 | 8.0 | 0.00 | 0.00 | 0.00 | 48 | 1018.5 |
| 20260830155020 | 81 | 259 | 2.0 | 7.0 | 0.00 | 0.00 | 0.00 | 49 | 1018.7 |
| 20260830154520 | 81 | 292 | 2.0 | 7.0 | 0.00 | 0.00 | 0.00 | 48 | 1018.7 |
| 20260830154019 | 81 | 208 | 2.0 | 4.0 | 0.00 | 0.00 | 0.00 | 51 | 1018.7 |
| 20260830153539 | 80 | 306 | 2.0 | 6.0 | 0.00 | 0.00 | 0.00 | 51 | 1018.6 |
| 20260830153039 | 80 | 331 | 2.0 | 6.0 | 0.00 | 0.00 | 0.00 | 52 | 1018.6 |
| 20260830152520 | 80 | 329 | 2.0 | 8.0 | 0.00 | 0.00 | 0.00 | 52 | 1018.9 |
| 20260830152101 | 80 | 197 | 2.0 | 9.0 | 0.00 | 0.00 | 0.00 | 53 | 1019.0 |
| 20260830151520 | 79 | 310 | 1.0 | 9.0 | 0.00 | 0.00 | 0.00 | 55 | 1019.1 |
| 20260830151020 | 78 | 268 | 1.0 | 3.0 | 0.00 | 0.00 | 0.00 | 53 | 1019.1 |
| 20260830150540 | 78 | 278 | 2.0 | 8.0 | 0.00 | 0.00 | 0.00 | 54 | 1019.2 |
| 20260830150020 | 79 | 340 | 2.0 | 7.0 | 0.00 | 0.00 | 0.00 | 52 | 1019.0 |
| 20260830145519 | 79 | 221 | 2.0 | 7.0 | 0.00 | 0.00 | 0.00 | 52 | 1019.1 |
| 20260830145019 | 79 | 189 | 2.0 | 9.0 | 0.00 | 0.00 | 0.00 | 52 | 1019.1 |
| 20260830144519 | 78 | 281 | 2.0 | 8.0 | 0.00 | 0.00 | 0.00 | 52 | 1019.1 |
| 20260830144021 | 78 | 281 | 1.0 | 6.0 | 0.00 | 0.00 | 0.00 | 54 | 1019.3 |
| 20260830143520 | 78 | 169 | 1.0 | 7.0 | 0.00 | 0.00 | 0.00 | 52 | 1019.3 |
| 20260830143020 | 78 | 226 | 2.0 | 7.0 | 0.00 | 0.00 | 0.00 | 52 | 1019.3 |
| 20260830142520 | 78 | 303 | 2.0 | 6.0 | 0.00 | 0.00 | 0.00 | 52 | 1019.4 |
| 20260830142019 | 78 | 326 | 2.0 | 4.0 | 0.00 | 0.00 | 0.00 | 54 | 1019.3 |
| 20260830141519 | 78 | 22 | 2.0 | 6.0 | 0.00 | 0.00 | 0.00 | 53 | 1019.4 |
| 20260830141019 | 77 | 205 | 2.0 | 7.0 | 0.00 | 0.00 | 0.00 | 53 | 1019.5 |
| 20260830140519 | 77 | 306 | 2.0 | 7.0 | 0.00 | 0.00 | 0.00 | 54 | 1019.5 |
| 20260830140023 | 77 | 77 | 1.0 | 6.0 | 0.00 | 0.00 | 0.00 | 55 | 1019.6 |
| 20260830135520 | 76 | 277 | 2.0 | 7.0 | 0.00 | 0.00 | 0.00 | 56 | 1019.7 |
| 20260830135020 | 75 | 271 | 2.0 | 7.0 | 0.00 | 0.00 | 0.00 | 58 | 1019.6 |
| 20260830134520 | 75 | 320 | 1.0 | 4.0 | 0.00 | 0.00 | 0.00 | 57 | 1019.6 |
| 20260830134019 | 75 | 312 | 2.0 | 7.0 | 0.00 | 0.00 | 0.00 | 57 | 1019.4 |
| 20260830133519 | 75 | 255 | 2.0 | 9.0 | 0.00 | 0.00 | 0.00 | 59 | 1019.5 |
| 20260830133039 | 74 | 251 | 2.0 | 7.0 | 0.00 | 0.00 | 0.00 | 59 | 1019.6 |
| 20260830132519 | 74 | 253 | 2.0 | 7.0 | 0.00 | 0.00 | 0.00 | 59 | 1019.7 |
| 20260830132020 | 73 | 191 | 1.0 | 7.0 | 0.00 | 0.00 | 0.00 | 61 | 1019.8 |
| 20260830131520 | 72 | 251 | 2.0 | 4.0 | 0.00 | 0.00 | 0.00 | 60 | 1019.8 |
| 20260830131020 | 72 | 271 | 1.0 | 4.0 | 0.00 | 0.00 | 0.00 | 61 | 1019.8 |
| 20260830130520 | 73 | 330 | 1.0 | 4.0 | 0.00 | 0.00 | 0.00 | 61 | 1019.9 |
| 20260830130020 | 73 | 259 | 1.0 | 6.0 | 0.00 | 0.00 | 0.00 | 59 | 1019.9 |
| 20260830125519 | 72 | 261 | 2.0 | 3.0 | 0.00 | 0.00 | 0.00 | 61 | 1020.0 |
| 20260830125019 | 72 | 271 | 1.0 | 3.0 | 0.00 | 0.00 | 0.00 | 63 | 1020.0 |
| 20260830124519 | 72 | 200 | 1.0 | 3.0 | 0.00 | 0.00 | 0.00 | 63 | 1020.0 |
| 20260830124019 | 71 | 134 | 1.0 | 4.0 | 0.00 | 0.00 | 0.00 | 63 | 1020.0 |
| 20260830123540 | 71 | 226 | 1.0 | 3.0 | 0.00 | 0.00 | 0.00 | 65 | 1020.0 |
| 20260830123020 | 71 | 266 | 0.0 | 4.0 | 0.00 | 0.00 | 0.00 | 65 | 1020.0 |
| 20260830122520 | 70 | 179 | 1.0 | 4.0 | 0.00 | 0.00 | 0.00 | 64 | 1020.1 |
| 20260830122100 | 70 | 186 | 1.0 | 3.0 | 0.00 | 0.00 | 0.00 | 66 | 1020.2 |
| 20260830121539 | 69 | 196 | 2.0 | 7.0 | 0.00 | 0.00 | 0.00 | 65 | 1020.4 |
| 20260830121019 | 69 | 191 | 1.0 | 3.0 | 0.00 | 0.00 | 0.00 | 66 | 1020.3 |
| 20260830120519 | 68 | 187 | 1.0 | 3.0 | 0.00 | 0.00 | 0.00 | 68 | 1020.2 |
| 20260830120019 | 66 | 173 | 1.0 | 3.0 | 0.00 | 0.00 | 0.00 | 70 | 1020.3 |
| 20260830115521 | 66 | 226 | 0.0 | 3.0 | 0.00 | 0.00 | 0.00 | 72 | 1020.2 |
| 20260830115020 | 66 | 307 | 0.0 | 2.0 | 0.00 | 0.00 | 0.00 | 71 | 1020.3 |
| 20260830114520 | 66 | 110 | 1.0 | 3.0 | 0.00 | 0.00 | 0.00 | 71 | 1020.3 |
| 20260830114040 | 65 | 247 | 0.0 | 2.0 | 0.00 | 0.00 | 0.00 | 71 | 1020.4 |
| 20260830113520 | 65 | 323 | 0.0 | 1.0 | 0.00 | 0.00 | 0.00 | 71 | 1020.3 |
| 20260830113020 | 65 | 80 | 1.0 | 2.0 | 0.00 | 0.00 | 0.00 | 71 | 1020.3 |
| 20260830112520 | 65 | 125 | 1.0 | 2.0 | 0.00 | 0.00 | 0.00 | 72 | 1020.2 |
| 20260830112020 | 65 | 185 | 1.0 | 2.0 | 0.00 | 0.00 | 0.00 | 72 | 1020.3 |
| 20260830111520 | 64 | 153 | 1.0 | 2.0 | 0.00 | 0.00 | 0.00 | 72 | 1020.3 |
| 20260830111040 | 64 | 144 | 1.0 | 2.0 | 0.00 | 0.00 | 0.00 | 73 | 1020.3 |
| 20260830110519 | 64 | 144 | 1.0 | 2.0 | 0.00 | 0.00 | 0.00 | 73 | 1020.3 |
| 20260830110040 | 64 | 112 | 0.0 | 2.0 | 0.00 | 0.00 | 0.00 | 73 | 1020.4 |
| 20260830105519 | 63 | 162 | 1.0 | 2.0 | 0.00 | 0.00 | 0.00 | 73 | 1020.4 |
| 20260830105018 | 63 | 197 | 1.0 | 4.0 | 0.00 | 0.00 | 0.00 | 73 | 1020.3 |
| 20260830104520 | 63 | 193 | 1.0 | 4.0 | 0.00 | 0.00 | 0.00 | 73 | 1020.2 |
| 20260830104020 | 63 | 145 | 1.0 | 2.0 | 0.00 | 0.00 | 0.00 | 74 | 1020.2 |
| 20260830103540 | 63 | 179 | 1.0 | 3.0 | 0.00 | 0.00 | 0.00 | 75 | 1020.2 |
| 20260830103020 | 63 | 172 | 0.0 | 2.0 | 0.00 | 0.00 | 0.00 | 74 | 1020.3 |
| 20260830102519 | 62 | 182 | 0.0 | 2.0 | 0.00 | 0.00 | 0.00 | 74 | 1020.4 |
| 20260830102019 | 62 | 151 | 1.0 | 2.0 | 0.00 | 0.00 | 0.00 | 74 | 1020.3 |
| 20260830101519 | 63 | 140 | 0.0 | 1.0 | 0.00 | 0.00 | 0.00 | 74 | 1020.3 |
| 20260830101019 | 63 | 161 | 0.0 | 1.0 | 0.00 | 0.00 | 0.00 | 74 | 1020.5 |
| 20260830100519 | 63 | 325 | 0.0 | 2.0 | 0.00 | 0.00 | 0.00 | 74 | 1020.4 |
| 20260830100020 | 63 | 6 | 0.0 | 2.0 | 0.00 | 0.00 | 0.00 | 74 | 1020.4 |
| 20260830095520 | 63 | 181 | 0.0 | 2.0 | 0.00 | 0.00 | 0.00 | 74 | 1020.2 |
| 20260830095020 | 62 | 135 | 0.0 | 2.0 | 0.00 | 0.00 | 0.00 | 75 | 1020.3 |
| 20260830094520 | 62 | 176 | 0.0 | 2.0 | 0.00 | 0.00 | 0.00 | 76 | 1020.2 |
| 20260830094019 | 62 | 66 | 0.0 | 1.0 | 0.00 | 0.00 | 0.00 | 77 | 1020.2 |
| 20260830093539 | 63 | 197 | 0.0 | 2.0 | 0.00 | 0.00 | 0.00 | 76 | 1020.2 |
| 20260830093039 | 63 | 217 | 0.0 | 2.0 | 0.00 | 0.00 | 0.00 | 76 | 1020.2 |
| 20260830092519 | 62 | 178 | 0.0 | 1.0 | 0.00 | 0.00 | 0.00 | 76 | 1020.2 |
| 20260830091520 | 62 | 137 | 0.0 | 1.0 | 0.00 | 0.00 | 0.00 | 77 | 1020.3 |
| 20260830091020 | 62 | 154 | 1.0 | 1.0 | 0.00 | 0.00 | 0.00 | 78 | 1020.4 |
| 20260830090520 | 62 | 156 | 1.0 | 2.0 | 0.00 | 0.00 | 0.00 | 77 | 1020.5 |
| 20260830090020 | 62 | 193 | 0.0 | 2.0 | 0.00 | 0.00 | 0.00 | 78 | 1020.6 |
| 20260830085520 | 61 | 204 | 0.0 | 2.0 | 0.00 | 0.00 | 0.00 | 80 | 1020.8 |
| 20260830085019 | 61 | 184 | 0.0 | 1.0 | 0.00 | 0.00 | 0.00 | 80 | 1020.8 |
| 20260830084519 | 61 | 190 | 0.0 | 3.0 | 0.00 | 0.00 | 0.00 | 80 | 1020.7 |
| 20260830084019 | 60 | 196 | 0.0 | 3.0 | 0.00 | 0.00 | 0.00 | 82 | 1020.8 |
| 20260830083518 | 60 | 0.0 | 0.0 | 0.00 | 0.00 | 0.00 | 81 | 1020.8 | |
| 20260830083020 | 60 | 177 | 0.0 | 2.0 | 0.00 | 0.00 | 0.00 | 81 | 1021.1 |
| 20260830082545 | 60 | 170 | 0.0 | 1.0 | 0.00 | 0.00 | 0.00 | 81 | 1021.0 |
| 20260830082019 | 60 | 172 | 0.0 | 1.0 | 0.00 | 0.00 | 0.00 | 82 | 1021.0 |
| 20260830081540 | 60 | 196 | 0.0 | 3.0 | 0.00 | 0.00 | 0.00 | 83 | 1021.0 |
| 20260830081019 | 59 | 0.0 | 0.0 | 0.00 | 0.00 | 0.00 | 85 | 1021.0 | |
| 20260830080519 | 59 | 170 | 0.0 | 2.0 | 0.00 | 0.00 | 0.00 | 85 | 1021.0 |
| 20260830080023 | 59 | 177 | 0.0 | 2.0 | 0.00 | 0.00 | 0.00 | 85 | 1021.0 |
| 20260830075519 | 59 | 0.0 | 0.0 | 0.00 | 0.00 | 0.00 | 85 | 1020.9 | |
| 20260830075019 | 59 | 0.0 | 0.0 | 0.00 | 0.00 | 0.00 | 85 | 1020.9 | |
| 20260830074520 | 59 | 0.0 | 0.0 | 0.00 | 0.00 | 0.00 | 85 | 1020.8 | |
| 20260830074020 | 59 | 0.0 | 0.0 | 0.00 | 0.00 | 0.00 | 85 | 1020.8 | |
| 20260830073540 | 59 | 0.0 | 0.0 | 0.00 | 0.00 | 0.00 | 85 | 1020.8 | |
| 20260830073020 | 59 | 0.0 | 0.0 | 0.00 | 0.00 | 0.00 | 85 | 1020.8 | |
| 20260830072539 | 59 | 0.0 | 0.0 | 0.00 | 0.00 | 0.00 | 85 | 1020.7 | |
| 20260830072019 | 59 | 0.0 | 1.0 | 0.00 | 0.00 | 0.00 | 85 | 1020.8 | |
| 20260830071519 | 59 | 217 | 0.0 | 1.0 | 0.00 | 0.00 | 0.00 | 85 | 1020.8 |
| 20260830071019 | 59 | 0.0 | 0.0 | 0.00 | 0.00 | 0.00 | 85 | 1020.7 | |
| 20260830070518 | 59 | 0.0 | 0.0 | 0.00 | 0.00 | 0.00 | 84 | 1020.6 | |
| 20260830070020 | 59 | 0.0 | 0.0 | 0.00 | 0.00 | 0.00 | 84 | 1020.6 | |
| 20260830065520 | 59 | 215 | 0.0 | 1.0 | 0.00 | 0.00 | 0.00 | 84 | 1020.5 |
| 20260830065020 | 59 | 0.0 | 0.0 | 0.00 | 0.00 | 0.00 | 84 | 1020.7 | |
| 20260830064520 | 59 | 0.0 | 1.0 | 0.00 | 0.00 | 0.00 | 84 | 1020.6 | |
| 20260830064019 | 59 | 216 | 0.0 | 2.0 | 0.00 | 0.00 | 0.00 | 84 | 1020.6 |
| 20260830063519 | 59 | 232 | 0.0 | 2.0 | 0.00 | 0.00 | 0.00 | 84 | 1020.7 |
| 20260830063019 | 59 | 0.0 | 1.0 | 0.00 | 0.00 | 0.00 | 84 | 1020.8 | |
| 20260830062519 | 59 | 0.0 | 0.0 | 0.00 | 0.00 | 0.00 | 84 | 1020.8 | |
| 20260830062018 | 58 | 0.0 | 0.0 | 0.00 | 0.00 | 0.00 | 84 | 1020.8 | |
| 20260830061540 | 58 | 0.0 | 0.0 | 0.00 | 0.00 | 0.00 | 84 | 1020.8 | |
| 20260830061020 | 58 | 0.0 | 0.0 | 0.00 | 0.00 | 0.00 | 84 | 1020.8 | |
| 20260830060520 | 58 | 0.0 | 0.0 | 0.00 | 0.00 | 0.00 | 84 | 1021.0 | |
| 20260830060020 | 58 | 0.0 | 0.0 | 0.00 | 0.00 | 0.00 | 84 | 1021.0 | |
| 20260830055519 | 58 | 0.0 | 0.0 | 0.00 | 0.00 | 0.00 | 84 | 1021.0 | |
| 20260830055019 | 58 | 297 | 0.0 | 1.0 | 0.00 | 0.00 | 0.00 | 83 | 1020.8 |
| 20260830054519 | 58 | 0.0 | 0.0 | 0.00 | 0.00 | 0.00 | 83 | 1020.9 | |
| 20260830054019 | 58 | 0.0 | 0.0 | 0.00 | 0.00 | 0.00 | 83 | 1020.9 | |
| 20260830053518 | 58 | 0.0 | 0.0 | 0.00 | 0.00 | 0.00 | 83 | 1021.0 | |
| 20260830053020 | 58 | 0.0 | 0.0 | 0.00 | 0.00 | 0.00 | 83 | 1021.0 |